Weather Roundup
Issued by NWS

Home | Current Version | Previous Version | Graphics & Text | Print | Product List | Glossary Off
Versions: 1 2 3 4 5 6 7 8 9 10 11 12 13 14 15 16 17 18 19 20 21 22 23 24 25 26 27 28 29 30 31 32 33 34 35 36 37 38 39 40 41 42 43 44 45 46 47 48 49 50

000
NZUS93 KARX 221459
HRRWXR

CURRENT HOURLY OBSERVATIONS ACROSS
MUCH OF THE UPPER MISSISSIPPI VALLEY
NATIONAL WEATHER SERVICE LA CROSSE WI
900 AM CST WED FEB 22 2017


...SOUTHEAST MINNESOTA...


CITY           SKY/WX    TMP DP  RH WIND       PRES   REMARKS
ROCHESTER      SUNNY     43  38  82 S14       29.60R
ROCHESTER/MAYO FAIR      45  36  71 S7        29.60S
WINONA         SUNNY     50  36  57 W5        29.61R
AUSTIN         MOSUNNY   43  36  75 S7        29.60S
ALBERT LEA     MOSUNNY   46  37  71 SW8       29.59F
DODGE CENTER   NOT AVBL
PRESTON        SUNNY     46  35  66 SW16G24   29.60F
OWATONNA       MOSUNNY   43  36  75 SW5       29.61R
FARIBAULT      PTSUNNY   43  37  81 S6        29.61R
$$

...ELSEWHERE IN MINNESOTA...


CITY           SKY/WX    TMP DP  RH WIND       PRES   REMARKS
MINNEAPOLIS    CLOUDY    44  40  85 CALM      29.59S
INTNL FALLS    CLOUDY    33  31  92 N6        29.68F WCI  28
DULUTH         MOSUNNY   40  37  89 NE3       29.61F
RED WING       CLOUDY    45  39  81 CALM      29.60R
REDWOOD FALLS  CLOUDY    42  38  85 CALM      29.60F
MANKATO        NOT AVBL
WORTHINGTON    SUNNY     43  36  76 SW10      29.62F
FAIRMONT       PTSUNNY   45  37  73 W16       29.59S
$$

...SOUTHWEST WISCONSIN...


CITY           SKY/WX    TMP DP  RH WIND       PRES   REMARKS
LA CROSSE      MOSUNNY   49  36  61 S8        29.61F
PRAIRIE DU CHI MOSUNNY   53  38  58 CALM      29.66F
BOSCOBEL       SUNNY     47  41  80 W3        29.67F
LONE ROCK      NOT AVBL
PLATTEVILLE    MOSUNNY   49  49 100 S15       29.71R
FORT MC COY    MOSUNNY   54  36  51 SW8       29.61F
MAUSTON-NEW LI SUNNY     55  40  58 S8        29.61F
VIROQUA        FAIR      49  37  62 SW12      29.64S
WIS DELLS      SUNNY     55  41  59 SW9       29.65F
$$

...ELSEWHERE IN WISCONSIN...


CITY           SKY/WX    TMP DP  RH WIND       PRES   REMARKS
MILWAUKEE      CLOUDY    54  51  90 SW15G25   29.73F
MADISON        PTSUNNY   51  49  92 S14       29.68F FOG
GREEN BAY      CLOUDY    46  43  89 S6        29.66F
EAU CLAIRE     NOT AVBL
BLACK RVR FLS  FAIR      51  34  51 SW6       29.59F
MEDFORD        MOSUNNY   41  37  86 CALM      29.61R
WAUSAU         CLOUDY    44  37  76 SE8       29.58S
WIS RAPIDS     MOSUNNY   54  39  57 SW7       29.61F
MARSHFIELD     MOSUNNY   47  36  65 S5        29.58F
RICE LAKE      CLOUDY    37  37  99 CALM      29.62R
$$

...NORTHEAST IOWA...


CITY           SKY/WX    TMP DP  RH WIND       PRES   REMARKS
WATERLOO       SUNNY     51  35  54 S8        29.64F
DUBUQUE        SUNNY     50  50 100 S18       29.70S
DECORAH        SUNNY     50  36  57 SW7G15    29.63S
MASON CITY     SUNNY     46  36  68 SW8       29.62F
CHARLES CITY   CLOUDY    46  39  76 S10       29.63F
OELWEIN        SUNNY     46  41  81 S9        29.66F
$$

...ELSEWHERE IN IOWA...


CITY           SKY/WX    TMP DP  RH WIND       PRES   REMARKS
DES MOINES     MOSUNNY   57  33  40 SW13      29.67F
IOWA CITY      SUNNY     54  51  90 S16       29.73F
FORT DODGE     SUNNY     46  36  66 SW8       29.62F
MARSHALLTOWN   SUNNY     53  37  54 SW12      29.65F
CEDAR RAPIDS   SUNNY     54  49  83 S17G24    29.68F
$$

...NORTHERN ILLINOIS...


CITY           SKY/WX    TMP DP  RH WIND       PRES   REMARKS
CHICAGO-OHARE  CLOUDY    54  52  93 SW8       29.78S FOG
CHICAGO-MIDWAY CLOUDY    53  52  96 W13       29.80R FOG
MOLINE         CLOUDY    48  48 100 S10       29.77R FOG
ROCKFORD       FOG       54  53  97 S15       29.77F VSB 1
PEORIA         FOG       53  53 100 SW8       29.82R VSB<1/4
$$

NOTE: "FAIR" INDICATES FEW OR NO CLOUDS BELOW 12,000 FEET WITH NO
SIGNIFICANT WEATHER AND/OR OBSTRUCTIONS TO VISIBILITY. WIND
SPEEDS ARE IN MILES-PER-HOUR.




USA.gov is the U.S. government's official web portal to all federal, state and local government web resources and services.